HULIANWANG DIGUI-92 (66000 NORAD) Tracking and Keplerian Element Data

This shows tracking and keplerian element data for the satellite.

Feedback or suggestion? Click here.




ElementValue
Catalog66000
NameHULIANWANG DIGUI-92
Epoch Orbit903
Epoch Day354.01468293
Epoch Year2025
RAAN99.8075
Inclination50.0046
Eccentricity1.68E-05
Argument of Perigee182.5774
Mean Anonmoly177.5108
Mean Motion13.54146439
Decay Rate-1.07E-06
L11 66000U 25231F 25354.01468293 -.00000107 00000+0 38431-4 0 9998
L22 66000 50.0046 99.8075 0000168 182.5774 177.5108 13.54146439 9037



Live tracking and technical data element details for HULIANWANG DIGUI-92 (NORAD 66000). HULIANWANG DIGUI-92 can be tracked NOW for your location showing map with azimuth and elevation plus other details from your city location.







IsCatalogInMostPopularTable: catalog: 66000, numindb: 5
Update: records affected: 1



GetName: 66000 HULIANWANG DIGUI-92

Hit Count: updated at: Tue, 21 Apr 2026 19:40:04 GMT